Theta_e
323 323 325 324 325 325 324 325 327 329 333 333 332 335 340 344 344 346 350 349 347 348 350 351 351 351 350 351 351 349 348 349 352 352 352 352 351 349 347 351 353 351 348 348 347 347 346 344 346 347 345 345 346 345 346 346 347 346 346 348 348 347 347 348 347 348 350 351 349 350 351 350 350 351 350 350 349 350 350 349 349 351 353 353 353 353 353
322 323 324 325 324 324 324 327 330 331 333 333 332 335 341 344 344 345 347 347 346 346 347 350 350 348 348 349 348 347 346 347 349 351 352 351 351 350 349 350 352 352 351 349 347 347 350 348 346 347 347 346 346 345 346 346 346 347 347 347 347 347 347 347 347 348 349 350 350 349 349 349 348 348 348 348 346 346 346 346 346 348 350 352 352 353 353
322 323 324 325 324 325 326 326 329 332 332 333 333 334 338 340 342 343 343 344 346 344 344 346 345 345 348 349 347 347 346 346 347 349 350 350 350 351 350 351 351 352 352 350 346 347 351 352 350 347 348 349 350 349 347 347 347 347 347 347 347 348 349 348 348 349 349 349 350 349 348 349 348 346 345 346 346 347 346 344 345 345 347 348 349 350 349
322 322 323 324 323 326 327 327 328 332 333 333 334 335 336 338 340 341 341 342 345 345 343 344 344 344 346 346 346 346 345 345 347 347 347 348 348 349 351 352 352 352 351 351 350 347 348 353 355 351 348 349 351 352 350 349 348 347 348 350 350 351 350 350 349 349 350 350 349 349 349 349 349 347 345 344 346 348 348 346 344 345 347 348 348 348 348
322 321 323 323 321 326 329 329 329 332 334 333 334 336 336 336 338 340 342 342 343 343 343 345 345 344 344 343 342 341 343 344 346 346 345 346 346 347 349 350 352 353 352 352 353 352 349 352 356 355 351 348 348 349 351 354 356 354 351 349 349 349 348 348 349 350 350 349 348 348 349 348 348 347 346 344 344 347 348 347 346 347 347 348 348 348 349
322 324 324 322 325 332 335 334 329 331 333 332 333 335 334 335 337 339 340 341 341 341 342 344 345 343 342 341 339 338 341 344 346 346 346 346 346 345 346 348 349 350 349 349 352 353 354 354 355 355 354 352 349 347 350 356 359 358 355 351 349 349 348 346 347 348 349 348 348 349 349 348 348 348 347 345 344 344 346 348 348 347 347 346 347 347 348
323 326 323 323 332 339 338 331 328 330 332 332 333 334 333 332 335 337 337 338 340 340 341 341 343 342 341 340 340 340 342 343 345 346 346 346 346 345 346 347 348 348 347 347 349 351 353 354 354 354 353 353 352 351 351 354 355 356 355 354 354 354 351 349 347 347 348 348 348 349 349 347 346 347 347 346 345 344 344 346 347 347 346 345 346 346 347
324 324 322 325 335 339 333 329 331 329 329 332 334 334 333 331 333 335 336 336 337 338 339 340 341 342 341 341 341 341 342 343 344 344 345 345 345 344 346 347 347 347 346 346 347 348 350 352 352 352 351 351 351 352 353 354 355 354 353 353 354 354 353 352 350 349 350 350 349 350 349 347 345 344 346 347 347 345 344 344 346 347 346 346 346 345 346
325 325 326 330 334 334 332 334 335 330 327 332 336 336 334 331 331 333 334 335 337 338 338 340 340 341 342 342 341 341 342 344 344 344 344 345 344 345 345 345 345 345 344 344 345 346 347 349 350 350 351 351 351 352 352 353 353 354 353 354 354 352 350 351 351 350 351 350 349 350 351 348 344 343 346 348 347 345 343 344 346 347 347 347 347 345 344
326 325 326 329 332 335 338 336 333 329 328 331 334 335 334 331 330 332 333 334 336 337 338 340 341 341 342 343 342 341 341 343 344 344 344 344 344 344 344 344 344 344 344 344 344 345 346 347 346 346 347 348 349 350 350 352 352 353 353 353 354 352 351 351 352 351 350 348 347 349 352 351 347 346 347 347 346 344 343 343 344 346 347 347 346 344 342
325 324 324 330 333 337 338 332 327 328 329 327 328 335 336 333 330 332 333 333 335 337 339 340 340 341 344 343 341 340 340 342 342 342 342 343 343 343 343 344 343 343 343 343 343 344 345 345 345 346 345 346 346 347 348 349 350 350 350 351 352 352 351 351 352 351 350 349 348 350 353 353 352 352 351 350 348 346 344 343 343 344 346 346 345 343 341
327 327 329 333 334 334 332 327 327 329 327 324 328 336 336 333 330 332 333 332 333 336 339 339 340 341 343 342 340 339 340 340 340 340 341 341 342 342 341 342 342 341 342 342 343 343 343 344 345 344 344 345 345 346 346 347 347 347 348 348 349 349 350 350 351 351 351 349 348 350 352 353 353 354 353 353 350 348 346 347 347 347 348 347 347 346 346
328 329 332 333 332 330 328 327 329 329 327 331 335 336 335 331 330 331 331 332 333 335 338 340 339 340 341 340 339 339 338 339 339 339 339 340 340 340 339 339 339 339 339 340 341 340 341 342 343 343 343 344 345 345 345 345 345 345 345 346 347 348 348 348 349 351 351 351 349 349 349 350 351 352 352 351 350 349 349 349 348 348 349 350 349 349 349
326 329 332 333 332 330 327 327 329 329 333 337 336 333 330 330 330 330 330 332 333 335 337 339 339 339 339 338 338 338 338 338 338 338 338 338 337 337 337 337 337 337 337 338 338 338 338 339 341 342 343 343 343 343 343 343 344 344 344 345 345 346 347 347 347 348 349 350 350 350 349 349 350 351 350 350 350 349 349 348 347 347 348 349 348 347 347
327 329 331 333 333 331 328 329 330 331 334 334 332 329 329 330 330 329 330 332 333 335 337 338 338 339 338 337 336 336 336 336 335 335 336 336 335 334 335 335 335 336 336 336 336 337 337 338 340 340 341 341 341 341 341 341 342 343 343 344 344 345 345 345 345 346 347 348 348 348 349 350 349 349 348 348 349 349 349 348 348 347 348 347 346 346 346
328 331 332 332 332 330 328 330 331 331 330 330 328 328 329 328 328 329 330 331 332 334 337 337 337 338 338 337 336 335 335 335 334 334 335 334 333 333 333 334 334 334 334 334 335 336 337 337 337 336 337 337 337 338 338 338 338 339 341 342 343 343 343 343 343 343 344 345 345 344 345 345 345 344 345 344 345 346 346 347 347 346 346 345 345 345 344
328 331 332 330 328 328 328 329 328 328 328 327 328 328 328 328 328 328 329 330 331 332 335 337 336 337 337 337 336 335 334 334 333 333 333 332 332 332 332 332 332 332 332 332 332 334 335 334 333 332 332 332 331 332 333 332 333 334 335 337 339 339 338 339 339 338 338 339 339 339 339 337 337 339 341 342 342 343 343 344 345 344 343 343 342 342 340
328 329 329 327 326 326 327 327 327 327 328 327 328 328 327 327 328 327 328 330 330 330 333 335 335 336 336 336 336 335 334 333 332 332 332 332 332 332 331 331 330 330 330 329 330 331 332 333 332 332 331 330 329 329 329 330 331 332 331 331 332 332 333 334 334 335 335 335 335 335 334 332 331 332 333 334 335 335 336 337 338 339 339 338 337 337 335
331 331 330 327 326 326 326 326 326 327 327 327 327 328 327 327 327 327 327 328 329 329 330 331 333 334 335 335 335 334 334 333 332 332 332 332 332 331 330 330 329 329 329 328 329 329 329 330 331 330 330 330 330 330 329 330 331 330 328 327 327 327 328 328 329 330 331 332 333 333 333 331 330 329 329 330 329 329 329 329 329 329 328 328 327 327 327
334 334 330 326 324 326 325 325 325 325 326 326 326 326 326 326 326 326 326 327 328 328 328 328 330 332 334 334 334 334 334 334 333 332 331 330 330 330 329 329 328 327 326 326 327 327 327 327 328 328 328 329 330 330 330 330 330 329 328 327 328 329 328 327 326 326 326 327 329 329 329 331 331 331 331 331 331 331 331 330 328 327 326 326 325 324 322
332 331 329 326 326 326 325 325 325 325 324 324 324 324 325 325 325 326 326 327 326 327 328 328 328 330 332 334 334 333 333 333 333 332 331 330 330 330 329 328 327 327 326 325 325 326 327 326 326 327 327 328 330 329 329 330 330 329 328 328 328 329 329 328 328 328 327 326 325 324 324 326 327 329 331 330 330 332 333 332 331 330 329 328 328 327 324
331 331 329 328 329 329 327 325 325 324 324 323 323 323 324 324 325 325 326 326 326 326 328 328 328 328 330 331 332 333 333 332 332 331 331 330 330 329 329 329 328 327 327 325 324 325 326 326 326 326 325 327 329 328 327 328 328 328 327 327 327 327 327 327 328 329 328 327 325 324 322 321 321 323 323 322 324 328 329 329 329 330 329 329 329 328 327
331 329 326 325 327 327 326 324 324 324 323 322 321 322 323 324 324 324 325 326 326 326 327 328 328 328 328 329 330 331 332 332 331 331 330 330 330 329 329 328 328 327 327 325 323 323 325 326 325 325 325 325 327 328 327 327 327 327 327 327 326 326 326 326 327 327 327 326 325 324 323 322 321 321 320 319 321 324 325 326 327 328 328 328 328 328 328
328 326 325 324 325 325 324 324 324 323 322 321 321 322 323 323 323 324 324 325 325 325 325 327 327 328 328 328 328 330 330 330 331 330 329 329 329 329 328 328 328 326 325 323 320 320 322 324 324 324 324 324 324 327 327 327 326 327 327 327 326 326 326 326 326 325 325 324 324 324 323 322 321 320 318 318 321 322 323 324 326 327 327 326 326 326 326
326 325 324 323 324 324 324 323 323 322 321 321 321 322 322 322 322 323 323 324 324 324 324 325 326 326 327 327 328 329 330 330 329 329 328 328 328 328 328 328 327 325 322 320 318 317 319 321 321 322 324 324 323 324 326 326 326 326 326 326 326 325 325 326 326 326 325 325 324 324 323 322 321 320 319 319 320 319 319 320 321 322 323 325 325 324 324
326 325 323 322 321 322 323 323 322 321 321 321 321 321 322 322 322 323 323 324 324 323 324 324 324 325 326 327 327 328 329 329 329 328 328 328 327 327 327 327 326 325 322 318 316 316 317 318 317 319 322 322 321 323 325 325 325 326 326 326 326 325 325 325 326 326 326 325 325 324 324 324 324 323 323 322 321 320 318 318 318 317 317 319 320 320 319
325 324 321 321 322 322 322 323 322 321 321 321 320 320 320 321 322 322 322 323 323 323 324 324 324 325 326 326 326 327 327 328 328 328 328 328 327 327 326 326 326 325 321 316 313 314 315 315 314 316 317 316 316 320 324 325 325 326 326 326 325 325 325 325 326 326 326 326 325 324 324 325 325 324 323 322 321 320 320 321 321 319 317 317 317 316 315
322 321 321 322 324 323 322 322 322 321 320 319 319 318 318 319 321 321 320 320 321 322 322 323 323 324 324 325 325 325 325 326 327 328 327 327 326 326 325 324 324 322 319 316 314 314 315 316 316 316 316 316 315 316 320 323 324 324 325 325 325 325 325 325 325 325 325 325 325 324 324 324 324 324 324 323 322 321 321 322 321 320 319 319 318 317 315
321 321 322 324 324 323 322 321 320 319 319 318 318 318 318 318 319 320 319 318 319 320 320 320 321 322 323 324 324 324 324 324 325 327 327 326 326 325 325 324 323 320 319 318 318 318 318 319 319 318 318 318 317 316 317 319 321 321 322 323 324 324 325 325 324 325 324 324 324 324 323 324 324 323 323 322 321 321 321 321 320 319 319 319 318 316 316
321 321 322 323 323 321 320 319 319 319 319 318 318 318 318 317 317 318 318 318 318 318 318 318 320 320 321 322 323 323 324 323 324 325 326 325 326 326 325 325 324 321 320 320 320 320 320 320 319 319 318 318 318 318 317 317 317 317 317 318 318 320 323 324 323 323 323 323 322 322 321 322 322 322 322 322 321 320 320 320 319 319 319 319 318 317 316
322 320 320 321 321 320 319 319 319 318 317 317 317 317 317 317 317 317 317 317 317 317 316 316 318 320 320 320 319 320 322 322 323 323 323 323 323 324 324 324 324 324 323 322 321 321 321 320 319 319 319 318 317 317 317 317 317 316 316 315 314 315 318 322 323 323 322 322 322 321 320 320 320 320 320 319 318 318 319 319 318 318 318 318 318 317 317
320 319 320 320 319 319 319 318 318 317 316 317 317 316 316 316 315 315 316 315 315 316 315 314 316 318 319 318 316 317 320 321 321 321 322 321 321 322 322 323 324 324 324 323 322 321 321 320 319 318 318 317 317 316 315 315 316 316 316 315 314 315 317 319 321 322 322 322 321 321 321 320 320 319 319 318 317 317 318 318 317 317 318 317 317 317 317
319 319 320 320 318 318 318 317 317 317 316 316 315 315 314 314 314 314 315 314 315 315 314 313 314 316 316 314 314 315 317 318 319 319 320 320 321 321 321 321 322 323 323 323 322 321 321 321 320 318 317 316 315 314 314 314 315 315 315 315 315 316 317 318 319 320 321 321 321 320 320 320 320 319 318 317 317 317 317 317 317 317 316 316 317 316 316
319 318 319 319 317 317 317 317 317 317 316 315 315 314 314 314 314 314 314 314 314 314 314 314 314 315 314 313 314 314 315 316 317 318 319 319 320 320 321 320 321 322 323 322 321 321 321 321 320 319 318 317 315 313 313 312 312 313 313 314 315 316 316 316 318 319 320 320 320 320 318 317 317 317 316 316 316 316 316 316 316 316 316 316 316 315 315
320 319 319 318 317 317 317 317 317 317 316 315 314 313 313 314 314 314 313 313 313 313 313 314 314 313 314 314 315 315 314 315 316 317 317 317 318 319 320 321 321 321 322 321 321 320 321 320 320 319 319 318 315 313 312 312 311 311 312 313 315 315 315 314 315 316 318 319 319 318 317 315 315 316 316 315 315 315 315 316 315 315 316 316 315 314 314
319 319 319 318 318 317 317 316 316 315 314 314 313 313 313 313 313 313 313 313 313 313 313 313 313 313 314 314 314 314 314 314 315 314 314 314 315 316 317 319 320 320 321 321 321 320 320 320 320 320 319 318 317 314 312 312 311 311 311 313 314 314 314 314 313 313 315 317 317 316 315 315 315 315 315 315 315 315 315 315 315 314 314 314 314 314 313
319 319 318 318 317 316 315 315 314 314 313 313 313 312 311 311 311 312 313 313 313 313 313 313 313 313 313 313 313 313 314 314 314 314 314 314 314 315 315 316 317 318 318 319 319 319 320 320 320 319 319 319 318 316 313 311 311 310 310 312 313 313 313 313 312 312 314 315 314 314 314 314 314 315 315 314 314 314 313 314 314 314 313 313 313 313 311
318 318 318 317 316 316 315 314 313 313 312 312 312 311 311 311 312 312 312 312 312 313 313 312 312 312 312 312 312 312 312 313 313 313 314 314 314 314 315 315 316 316 316 316 316 317 318 319 319 320 319 319 318 317 314 311 310 310 310 310 311 312 312 311 309 310 313 314 313 313 313 313 313 314 314 314 313 313 312 313 313 313 313 312 312 311 310
318 318 317 316 315 314 314 313 313 312 312 311 311 311 311 311 311 311 311 311 311 311 311 311 311 311 311 311 312 312 312 312 312 312 313 313 313 313 314 314 314 314 315 315 315 315 316 317 318 319 319 318 318 317 316 314 312 310 309 309 309 311 311 310 307 309 312 313 312 313 313 312 312 313 313 312 312 312 312 312 312 312 311 311 311 311 310
318 317 316 315 314 314 313 313 312 312 311 311 310 310 310 310 310 310 310 310 310 310 310 310 310 310 310 310 311 311 311 311 312 312 312 312 312 312 313 312 313 313 313 314 314 314 315 316 317 318 318 318 317 317 317 316 313 310 309 308 308 309 310 310 309 311 312 312 312 312 312 312 312 312 311 311 311 312 312 312 312 311 310 310 310 309 309
317 316 315 314 314 313 313 313 312 311 310 310 310 310 309 310 310 309 310 310 309 309 309 309 309 309 309 309 309 309 309 310 310 311 311 311 311 311 312 312 313 313 314 315 315 316 316 316 316 316 317 317 317 317 317 316 313 311 309 308 307 309 310 310 310 311 312 312 312 312 311 311 311 311 310 310 311 311 311 311 311 311 310 309 309 309 309
317 316 314 313 312 312 312 312 311 310 310 310 310 309 309 309 309 309 309 309 309 309 309 309 308 308 308 308 308 308 308 308 309 309 309 310 311 312 312 311 311 312 312 313 314 315 317 317 317 316 316 317 317 317 317 315 313 311 309 307 307 309 310 310 311 311 311 311 312 312 311 310 310 310 311 311 311 311 310 310 310 309 309 308 308 309 308
316 315 314 313 312 312 312 311 310 310 309 309 309 309 308 308 308 309 309 309 309 308 309 309 309 309 309 309 308 309 309 309 309 309 309 310 310 311 312 312 312 311 311 311 311 312 313 314 315 316 316 316 316 316 316 314 313 311 308 306 307 309 310 310 311 311 310 310 311 311 310 310 310 310 310 310 310 310 309 309 308 307 308 308 308 308 308
315 314 313 313 312 311 311 311 310 309 309 309 309 309 309 309 309 309 309 308 309 309 309 309 309 309 309 309 309 309 310 310 310 310 310 309 309 309 310 311 312 312 311 312 312 312 312 313 313 314 315 315 316 316 315 313 312 311 308 305 306 308 309 310 311 310 309 309 310 309 309 310 310 310 309 309 309 308 308 308 307 307 307 307 307 307 306
313 312 311 311 311 310 310 310 310 310 310 310 310 310 309 309 309 309 308 309 309 309 308 308 308 308 308 309 309 309 309 309 309 310 310 309 309 309 309 310 311 311 311 311 311 312 312 312 313 314 315 315 316 315 314 312 311 311 308 305 304 307 309 310 310 310 310 309 309 308 308 309 309 309 308 308 308 307 307 307 307 307 307 306 306 305 304
312 311 310 310 310 310 310 310 310 310 310 310 310 310 309 308 309 309 309 309 308 308 307 308 308 309 309 310 310 310 310 309 310 310 310 310 310 310 310 309 310 310 310 310 310 310 310 310 310 312 314 315 316 315 314 312 312 311 309 307 306 308 309 310 309 309 309 308 307 307 308 308 307 307 307 307 307 307 307 306 306 306 306 306 304 304 303
312 311 310 310 310 310 310 310 310 310 310 310 310 310 310 309 309 309 308 308 308 309 309 309 310 310 310 310 310 310 309 309 310 310 310 310 310 310 310 310 310 310 310 310 310 310 310 310 309 309 311 313 314 314 313 313 313 312 310 308 308 309 309 309 308 308 308 307 307 307 307 307 306 306 306 306 306 306 306 305 305 305 305 304 303 303 302
311 310 310 310 310 310 310 310 310 309 309 310 310 310 310 310 309 308 308 309 309 309 309 310 310 310 310 310 310 310 309 309 309 309 310 310 310 310 310 310 310 310 310 310 310 311 311 311 310 309 310 311 313 313 312 312 312 311 309 308 309 309 309 308 308 308 307 307 307 307 306 306 306 306 306 306 306 306 305 305 304 304 304 303 303 302 302
310 310 310 310 310 310 310 310 309 309 310 310 310 310 310 310 309 309 309 310 309 308 308 309 310 309 309 309 309 309 309 309 309 309 309 309 309 309 310 310 310 310 309 309 309 309 309 309 309 309 310 311 312 312 311 311 311 310 308 307 308 309 308 307 307 307 306 306 306 306 305 305 306 306 305 305 305 305 304 304 303 303 303 303 303 302 302
310 310 309 309 310 310 310 310 309 310 310 310 310 310 310 309 309 309 309 309 308 307 308 309 309 308 308 308 309 309 309 309 309 309 309 309 308 308 309 309 309 309 309 309 309 309 308 308 309 309 309 310 311 311 311 311 311 309 307 307 308 308 308 307 307 306 306 306 306 305 305 305 305 305 304 304 303 303 303 303 302 303 303 303 303 302 302
310 310 310 309 309 309 309 309 309 310 310 310 310 310 309 309 308 308 309 309 308 306 306 308 309 308 307 306 306 306 307 308 308 308 309 309 308 307 308 308 308 308 308 308 308 308 308 308 308 308 308 309 310 311 311 310 309 306 305 306 307 308 307 306 306 306 306 306 305 305 304 304 305 304 304 304 303 303 303 303 303 303 303 303 303 302 302
310 310 310 309 309 309 309 309 309 310 310 310 309 309 309 308 308 308 308 309 308 306 305 306 307 307 305 303 303 304 305 306 307 308 308 308 308 307 307 307 307 307 307 307 307 308 307 307 307 307 308 309 310 311 311 310 308 306 305 306 307 307 306 306 306 306 306 306 305 305 304 304 304 304 304 304 303 303 303 303 303 302 302 302 302 302 302
Wind_Speed
9 8 8 10 6 4 5 7 13 16 19 20 17 13 14 12 9 6 7 11 10 6 6 5 5 6 7 8 9 4 5 6 4 7 11 17 22 27 25 17 12 14 18 21 22 22 23 24 24 28 30 27 25 27 30 31 29 27 27 27 26 26 25 23 20 19 19 18 17 17 16 16 17 17 16 15 14 14 14 13 12 15 19 18 16 15 14
10 10 10 9 4 3 4 10 17 19 21 20 18 17 17 16 13 10 11 13 10 6 5 5 6 8 8 8 7 5 2 2 1 5 8 14 20 24 25 21 16 14 14 18 21 16 13 18 23 25 26 24 21 22 28 31 29 28 28 27 25 25 25 23 21 21 21 21 20 19 19 18 17 18 18 16 14 14 14 12 10 13 16 18 18 16 14
7 8 9 8 5 3 8 15 16 17 20 19 16 15 13 12 12 11 10 8 6 5 5 7 11 13 11 10 10 7 6 7 5 6 5 8 14 19 21 21 20 18 14 15 22 20 11 11 19 24 23 19 17 22 28 31 30 29 28 26 25 26 26 25 23 23 23 24 24 23 23 21 18 18 19 17 14 15 16 14 11 11 13 14 14 14 13
5 8 8 8 5 6 13 15 14 15 18 15 13 12 10 9 9 9 8 5 3 3 4 7 11 14 16 17 18 17 15 15 10 8 8 6 7 11 16 18 19 21 21 19 22 26 20 14 16 22 25 23 20 21 25 27 29 29 28 26 25 26 27 26 26 25 24 25 26 25 25 24 20 19 21 20 15 14 17 17 14 13 14 15 15 15 15
5 9 8 8 4 7 8 8 8 15 16 14 13 13 12 11 7 6 6 4 3 5 6 6 8 11 13 15 18 19 18 17 14 9 8 9 10 10 10 13 15 18 21 21 19 23 25 21 17 18 22 25 24 22 21 22 24 28 30 28 25 24 25 25 26 27 25 24 24 26 27 27 23 20 22 24 21 16 16 19 19 19 19 19 19 19 18
4 9 9 7 4 5 1 4 7 14 15 16 15 13 12 11 7 5 6 5 5 7 8 6 7 9 12 17 20 19 16 15 13 8 4 6 8 10 9 9 12 16 17 17 17 20 21 20 18 17 18 21 25 25 25 22 19 20 24 25 26 27 26 26 27 28 28 26 24 25 27 28 28 25 24 25 26 22 19 19 22 23 22 21 21 21 19
2 6 6 5 4 1 5 5 9 11 14 18 17 14 13 12 9 8 8 7 7 9 10 10 9 11 16 23 26 23 18 14 11 9 6 5 4 3 6 4 4 9 12 15 17 18 17 14 15 18 18 19 22 24 26 24 21 18 20 21 24 26 26 28 30 30 31 30 27 26 27 27 28 29 28 27 27 27 25 22 22 23 23 23 23 23 22
2 3 3 2 3 3 4 7 9 7 8 11 12 12 12 12 10 8 7 8 10 14 15 15 10 10 16 25 28 24 21 16 10 10 11 10 10 5 2 5 5 2 2 8 14 15 14 12 12 15 18 19 20 21 21 21 19 19 20 20 22 22 23 26 30 31 32 31 29 28 29 28 28 28 30 30 28 28 27 26 25 24 23 24 24 24 24
0 1 3 2 2 2 6 5 5 7 6 6 8 6 7 10 12 10 7 8 12 15 16 18 14 7 12 19 23 23 21 16 11 12 13 12 13 11 6 6 7 7 6 3 4 8 10 9 8 8 9 13 16 17 18 18 17 17 19 20 21 22 23 25 26 27 29 30 30 30 31 32 30 29 29 30 29 28 27 26 27 26 25 25 26 25 24
1 1 2 2 2 1 3 5 6 10 12 8 10 8 4 8 14 16 11 9 12 14 16 19 17 11 9 9 13 18 19 15 13 13 14 13 13 12 11 13 14 13 11 7 6 8 9 8 8 4 3 6 10 12 14 16 17 17 18 20 22 23 23 24 26 27 27 27 29 32 32 33 33 31 30 31 30 29 27 26 26 28 28 28 27 26 25
2 1 1 2 2 2 4 7 9 14 16 9 5 7 4 9 14 18 15 12 14 14 15 17 15 10 6 3 6 12 15 16 16 16 15 14 13 12 12 12 15 16 15 11 10 12 13 13 12 7 3 2 4 8 10 11 13 14 13 14 17 21 22 23 24 26 26 25 28 31 31 31 31 31 30 31 30 28 27 27 29 31 31 29 28 27 26
3 3 3 2 2 0 4 8 11 14 14 10 4 4 2 9 13 15 15 14 15 15 13 14 11 6 4 3 5 8 11 14 16 16 15 15 15 15 15 14 14 14 12 10 10 12 12 10 7 5 3 3 3 4 5 6 7 8 6 5 6 10 16 20 21 21 21 23 26 28 28 28 29 28 27 27 27 26 26 27 30 32 31 29 27 27 26
3 5 4 1 2 2 6 10 16 17 11 4 5 2 2 6 11 14 16 16 16 15 13 11 8 7 7 6 7 7 7 9 12 14 14 16 17 17 17 17 18 17 14 10 10 11 9 6 5 3 2 2 5 6 4 4 4 2 2 2 1 2 8 15 19 18 18 20 24 26 27 28 27 26 25 24 24 24 25 25 27 29 28 27 26 25 24
2 3 3 2 3 5 9 10 19 19 5 2 4 2 2 6 12 13 15 15 14 14 12 9 8 10 9 8 9 7 5 8 10 11 13 16 17 17 16 17 19 20 18 14 11 9 5 3 4 3 1 4 5 5 4 5 5 3 1 1 2 4 7 10 14 15 16 18 21 22 24 26 27 26 25 24 22 22 23 24 26 28 28 26 25 24 22
1 2 4 2 1 6 10 8 12 13 5 3 3 5 8 11 12 12 13 14 13 12 10 8 8 9 8 8 9 9 9 9 7 7 11 14 15 16 19 20 20 18 16 13 11 10 7 5 5 5 5 7 8 8 7 7 6 5 4 3 4 7 10 11 10 10 12 14 16 18 20 23 25 24 22 21 20 19 20 22 24 25 26 25 24 24 22
1 2 3 1 3 6 14 13 8 8 10 10 10 11 12 10 10 11 12 12 12 11 9 8 7 7 7 7 7 10 11 11 9 9 11 12 13 16 18 18 16 14 13 12 12 12 10 10 10 9 9 11 12 12 11 9 8 8 7 6 7 10 14 16 15 13 11 10 12 13 13 13 14 14 14 15 16 16 16 17 18 19 20 20 20 20 19
3 3 3 5 7 12 19 19 16 14 15 14 13 13 12 11 10 10 10 11 11 10 7 7 7 8 7 6 6 9 11 12 12 12 12 10 11 13 14 14 12 11 12 12 13 13 12 12 12 11 10 11 12 13 13 12 12 12 11 10 9 11 12 13 16 18 18 17 16 13 10 10 12 13 13 14 14 14 14 14 14 15 15 15 15 15 13
7 7 4 7 12 15 17 18 17 16 15 13 13 13 11 11 10 9 9 10 9 9 7 6 6 6 6 7 7 8 10 11 11 12 11 9 9 9 9 10 11 11 13 13 13 13 13 13 14 14 12 12 13 13 13 14 14 13 12 11 11 11 12 14 16 19 21 21 20 18 16 16 18 18 17 17 17 16 14 13 12 13 13 12 11 11 11
5 3 2 5 11 14 16 17 16 14 14 12 11 11 10 9 8 7 8 8 8 8 8 7 5 4 4 5 6 8 9 10 10 10 9 8 7 5 4 4 3 6 10 12 13 13 12 13 15 15 12 10 11 12 13 14 14 12 10 10 11 12 13 14 13 13 15 17 17 17 16 16 17 18 17 17 17 17 17 15 13 12 12 11 10 10 10
4 3 3 8 15 16 15 15 14 13 12 10 8 9 8 6 6 6 6 7 7 6 6 6 6 3 4 6 6 6 7 7 9 9 9 7 6 5 5 4 4 5 7 9 13 14 12 12 14 14 12 12 13 12 13 14 14 11 10 9 9 9 11 10 7 7 10 12 12 13 14 14 15 16 15 13 13 14 14 14 13 12 12 11 11 10 9
4 4 6 9 13 13 12 12 12 10 10 8 7 7 6 5 5 5 4 5 6 5 5 5 5 2 4 6 7 6 5 6 7 8 9 8 7 7 8 7 7 6 5 7 12 14 13 12 12 12 12 13 14 13 14 15 14 13 12 11 10 11 11 9 6 7 8 8 7 7 7 8 11 13 13 12 11 11 11 11 9 8 7 7 8 9 8
2 2 5 7 7 7 8 10 9 7 8 8 6 6 6 6 5 4 4 5 5 6 6 4 4 4 1 4 7 7 5 6 6 6 7 9 10 10 11 10 9 8 6 7 11 14 13 11 11 12 12 12 13 12 12 14 16 15 13 11 12 13 12 9 7 8 8 5 4 4 4 3 6 9 10 10 11 11 11 10 9 6 5 5 6 6 5
5 6 7 8 9 9 9 9 8 7 7 7 5 5 6 6 4 4 4 4 5 6 6 4 3 4 3 0 5 7 6 6 6 6 6 9 10 11 12 11 10 9 7 7 9 13 12 10 11 12 11 12 12 12 11 13 15 16 14 12 12 11 8 6 5 6 6 5 4 5 6 4 2 4 5 6 10 12 10 10 10 8 7 8 9 9 6
10 10 9 8 10 11 10 9 9 7 6 6 5 4 4 3 2 2 3 3 4 5 6 5 4 3 3 3 1 5 6 6 6 6 6 7 10 11 12 12 11 10 9 8 9 11 12 11 11 11 11 10 10 10 11 13 15 16 15 14 13 11 8 6 6 5 5 4 4 5 6 6 1 3 3 4 7 9 8 8 8 8 8 8 9 9 8
13 13 12 11 10 11 11 10 8 5 5 5 5 4 3 2 1 2 2 2 3 4 5 5 4 4 3 3 1 3 5 6 6 6 6 6 8 9 11 12 13 11 9 9 9 9 11 12 11 11 11 9 8 9 11 11 13 15 15 15 14 13 11 9 8 6 5 4 4 5 7 8 6 5 5 5 4 2 4 6 6 5 6 6 6 7 7
16 15 13 11 10 10 10 10 8 5 5 7 6 4 3 3 3 3 3 2 2 3 4 4 4 4 4 3 1 2 5 5 5 6 7 6 7 8 10 12 14 13 11 10 11 11 11 9 7 7 9 9 8 9 10 9 10 12 13 12 12 12 11 11 10 8 6 5 5 6 6 6 5 4 5 6 6 6 4 2 1 1 3 4 5 6 7
14 14 11 10 12 12 10 10 10 8 7 7 6 5 4 3 3 3 4 4 4 3 3 4 4 4 4 4 2 1 3 5 6 7 8 8 8 9 10 11 13 13 11 10 11 11 10 8 7 7 8 8 8 9 10 10 10 12 11 10 10 11 11 11 11 10 9 7 5 4 5 5 4 3 5 6 7 7 6 5 5 4 2 2 3 4 5
12 11 8 9 13 15 12 10 10 8 7 7 6 5 5 4 5 6 5 5 6 4 3 4 4 4 4 4 4 3 3 5 6 7 8 8 8 9 10 11 12 12 12 12 12 11 10 9 8 7 6 5 6 7 9 11 12 13 12 12 11 12 12 13 12 12 11 10 8 6 7 8 7 6 7 6 5 4 4 3 4 5 4 4 6 6 3
11 10 7 8 13 16 13 10 9 9 7 6 5 4 3 3 5 6 5 4 5 5 5 5 5 4 4 4 4 4 4 4 6 8 9 9 9 10 10 11 13 14 15 15 16 15 14 14 15 14 13 11 7 6 6 8 10 11 12 12 12 12 13 13 13 13 12 11 10 9 9 10 9 8 8 8 6 4 2 1 2 2 4 4 4 5 4
12 11 9 10 11 12 10 9 10 10 8 6 6 5 3 3 3 4 4 3 3 4 4 5 5 5 4 4 4 3 4 4 5 6 8 9 11 12 12 12 13 16 17 19 19 19 18 18 18 17 15 13 11 9 9 9 10 10 10 11 11 12 14 14 14 14 14 14 13 13 12 12 11 10 9 9 9 7 3 1 2 1 2 1 1 4 6
12 10 10 10 10 9 9 10 10 8 5 4 6 6 4 4 4 3 2 2 3 5 4 4 6 5 4 4 4 4 5 5 5 6 7 9 11 13 15 16 16 17 17 18 19 20 19 19 19 17 14 13 12 11 10 11 11 12 11 11 10 11 13 15 15 15 14 14 14 14 13 13 12 12 12 11 10 9 6 2 1 0 1 1 1 1 4
11 10 11 11 9 8 8 9 9 7 5 4 5 5 4 2 1 2 3 4 5 6 5 5 6 6 6 7 6 5 5 6 7 7 7 8 10 11 13 16 17 17 17 17 16 17 17 18 17 16 14 13 13 12 12 12 13 13 13 13 12 13 14 15 15 15 14 13 12 12 12 12 11 11 12 12 10 9 8 5 2 3 4 2 1 1 1
14 13 13 11 10 9 9 8 7 7 7 6 6 4 1 1 3 3 3 3 3 4 5 7 8 9 10 10 8 6 4 5 7 8 8 9 9 9 10 13 15 17 18 17 16 16 15 15 15 15 15 15 15 14 14 14 14 14 14 14 13 14 15 16 16 16 15 14 13 12 11 12 12 11 11 12 11 10 10 7 4 7 7 5 3 2 2
14 13 12 11 10 11 10 9 8 7 5 4 5 5 3 3 3 3 1 2 4 5 7 8 9 10 11 10 9 8 6 6 7 8 9 9 9 9 9 11 13 16 17 18 18 17 16 15 15 15 15 17 17 16 15 14 15 15 14 14 14 14 14 15 16 17 17 16 15 12 9 10 12 10 8 9 10 11 11 8 4 6 8 8 6 6 6
13 11 10 9 9 9 10 9 8 7 5 2 1 1 1 2 4 4 4 5 6 8 8 8 9 10 10 9 9 9 8 8 8 7 7 9 10 10 10 10 12 14 16 17 19 19 18 17 16 15 13 14 16 17 15 14 14 14 13 14 15 15 15 14 13 15 16 16 14 12 10 9 10 9 10 11 12 13 13 10 5 3 5 6 5 7 9
14 11 10 10 9 7 9 10 8 7 5 4 2 2 2 3 4 4 5 6 7 8 8 8 8 9 9 9 9 9 9 10 10 9 8 9 11 12 12 12 12 13 15 17 18 18 18 18 17 16 15 13 13 16 16 15 14 15 15 15 15 15 14 13 12 12 15 15 14 13 12 10 9 10 12 13 13 13 14 13 8 3 2 3 5 6 5
13 11 12 13 10 7 7 7 5 3 3 5 6 5 5 5 5 4 5 6 6 7 7 7 8 8 9 10 11 11 10 10 10 10 9 9 10 11 12 12 12 13 16 17 16 16 18 19 19 18 17 15 14 14 15 16 16 15 15 16 15 13 11 11 10 11 14 15 14 14 12 10 11 13 13 13 13 12 12 13 11 6 2 3 4 3 2
14 11 11 12 11 9 6 5 3 3 3 4 4 3 4 3 3 4 6 6 6 7 8 9 9 9 10 11 11 11 11 11 10 10 10 10 10 11 11 11 11 11 14 16 15 15 16 17 18 19 19 18 16 15 15 16 18 16 13 14 16 14 12 9 8 11 16 16 14 14 12 10 11 13 13 11 12 11 10 10 11 10 6 4 5 5 5
15 13 11 11 11 10 8 6 5 5 4 3 3 3 4 5 6 6 7 7 7 7 8 9 9 9 10 11 10 10 9 9 9 10 10 10 11 11 12 12 12 12 13 15 15 15 15 14 17 21 22 21 19 17 16 16 16 14 11 12 15 17 14 9 6 11 15 14 12 12 13 12 11 13 12 11 11 12 11 8 10 11 9 7 7 6 5
15 14 13 12 9 8 8 8 7 6 4 4 4 4 4 5 6 6 7 8 8 8 10 11 12 12 12 13 14 14 12 11 10 10 10 11 12 12 12 12 13 13 13 13 14 15 14 14 16 20 23 24 23 22 19 17 15 14 12 12 15 17 14 9 9 13 14 12 11 13 15 14 13 13 12 11 12 14 12 10 12 13 11 8 8 8 10
14 12 10 8 7 9 11 10 6 3 3 5 6 4 4 4 5 6 7 7 9 11 12 14 15 15 15 16 17 18 18 17 15 15 14 13 13 13 13 13 13 13 12 12 12 13 14 16 17 18 21 24 26 26 25 21 18 16 15 14 15 18 15 12 12 14 14 13 13 14 14 13 13 12 10 10 12 13 13 13 14 13 11 9 9 11 12
11 10 9 8 8 11 11 7 4 3 4 6 5 4 5 6 7 7 8 9 11 14 15 15 15 16 16 17 18 18 18 17 17 17 16 14 13 13 15 15 14 14 14 14 13 13 14 15 15 15 18 22 26 28 28 23 19 17 17 16 17 19 18 16 16 17 17 16 15 14 13 12 11 11 11 12 14 13 11 11 13 13 12 11 13 14 13
7 9 11 10 8 8 6 4 4 4 4 5 6 7 9 9 8 8 8 10 12 14 14 13 14 15 16 18 18 18 17 17 16 16 15 13 13 13 13 13 13 14 15 15 15 15 14 14 12 12 15 20 25 28 26 22 18 16 16 17 20 21 20 19 18 18 18 17 16 15 14 12 11 11 12 15 15 13 9 9 12 14 13 13 14 14 12
9 10 10 9 6 5 4 4 3 3 4 5 6 7 8 9 9 9 10 10 11 12 13 15 16 18 19 19 19 18 18 18 18 17 17 17 16 15 13 11 11 11 11 12 13 14 14 14 14 13 13 16 23 27 25 20 17 15 14 16 20 21 19 18 16 15 15 17 17 16 16 14 13 13 13 13 12 11 11 12 14 15 14 13 13 12 10
12 10 8 5 4 4 4 3 3 5 6 6 7 7 7 7 8 10 11 11 13 15 16 18 18 17 17 18 18 19 19 20 19 18 18 18 18 17 15 14 13 12 11 12 13 14 13 13 14 14 14 16 21 25 25 22 19 15 13 15 18 18 17 16 16 14 14 16 17 17 16 15 14 14 14 13 13 14 15 14 14 14 14 13 11 10 9
10 6 3 3 3 4 4 4 4 4 4 5 6 5 4 5 7 9 10 11 13 14 15 15 15 15 16 16 17 18 19 18 18 17 16 16 17 17 16 15 15 15 14 14 15 16 15 14 13 14 16 19 21 22 23 23 22 18 15 15 17 17 16 16 17 15 14 15 16 16 16 15 14 13 14 15 15 15 15 15 14 12 12 11 9 8 6
4 3 4 7 7 6 5 4 4 3 4 5 6 5 5 6 7 8 9 10 10 11 12 12 14 15 16 16 16 16 16 17 18 16 14 14 15 14 13 13 14 14 14 13 14 16 16 15 13 13 14 18 22 23 24 24 23 21 19 18 18 18 18 19 18 16 15 16 16 17 17 17 15 15 16 17 16 15 15 15 14 12 10 8 6 4 3
3 4 7 8 8 7 6 5 5 5 5 5 6 6 6 6 6 7 8 8 8 9 10 11 13 15 16 15 15 14 13 14 15 16 14 14 14 13 12 13 14 15 14 13 13 14 14 13 12 11 12 15 20 24 26 26 24 22 21 21 21 20 21 20 19 17 17 17 17 17 18 18 16 16 17 17 17 16 15 14 13 11 8 6 5 3 3
6 5 5 5 4 5 5 4 3 4 5 6 5 5 4 4 4 5 6 6 7 9 9 10 12 13 13 12 12 11 9 9 12 15 16 15 15 15 14 14 15 15 15 14 13 12 11 11 10 11 12 14 17 21 26 27 24 21 21 22 22 22 22 22 21 20 19 19 17 17 17 17 15 14 12 12 13 15 15 14 14 13 10 7 6 5 5
8 6 5 4 4 4 4 3 3 4 5 5 4 3 2 3 3 4 5 6 7 8 8 9 10 12 12 11 10 10 9 8 10 13 14 15 16 16 15 15 15 14 14 15 14 13 12 12 11 11 12 14 16 21 26 28 25 23 23 23 22 22 23 24 22 21 21 20 19 17 16 16 15 12 8 7 8 10 10 10 11 13 13 11 10 9 9
6 6 6 6 6 5 5 5 5 6 6 5 3 2 2 3 3 3 5 7 8 8 8 8 9 12 13 14 14 13 12 11 11 11 12 13 14 14 14 15 15 15 15 15 15 15 15 14 12 11 12 14 16 21 27 28 25 24 25 23 21 21 23 23 21 21 22 21 19 16 15 15 14 12 10 9 11 12 11 10 10 12 14 15 15 13 12
6 7 6 4 4 4 4 3 3 4 4 3 3 2 3 3 1 2 4 7 9 9 8 7 8 11 14 16 17 16 15 14 12 11 11 11 11 11 12 12 13 14 15 15 14 14 14 13 12 11 12 14 16 22 26 26 24 24 24 23 21 23 24 23 21 21 21 20 18 17 16 16 14 13 13 14 16 16 15 13 11 10 11 14 16 16 15
Wind_Direction
328 323 305 282 276 317 337 10 27 37 51 55 56 52 43 54 83 80 46 58 67 43 20 22 360 11 31 15 356 6 103 114 161 179 180 195 200 200 204 208 207 203 202 201 197 201 213 218 210 200 200 210 216 213 211 207 202 198 197 200 207 211 211 214 214 208 203 205 205 203 210 211 207 213 221 224 227 225 223 228 226 215 212 214 220 223 224
319 318 307 295 296 305 350 42 54 59 57 52 51 53 56 63 69 63 51 51 56 34 0 344 340 7 42 45 16 355 16 55 251 217 188 193 198 199 207 216 214 206 207 206 201 203 216 218 210 201 200 211 219 213 206 202 198 196 197 201 208 212 213 214 215 211 205 205 206 204 209 216 214 214 221 227 229 229 230 230 228 223 216 214 218 224 229
312 307 312 313 321 3 37 40 47 64 65 56 51 53 58 69 72 69 59 47 35 16 10 6 358 7 24 33 32 20 349 344 316 273 241 208 202 201 206 217 220 216 214 211 209 210 212 205 205 203 198 198 200 195 194 195 195 196 198 199 201 203 205 207 211 212 210 209 208 205 207 213 214 212 218 226 226 224 228 228 227 230 221 213 217 226 234
317 297 296 278 274 55 48 26 26 57 66 60 56 54 54 61 74 83 80 59 357 343 18 23 15 22 30 30 30 26 10 3 352 315 301 286 249 226 217 218 222 219 213 212 214 215 216 214 210 208 204 200 192 183 184 191 193 193 193 192 190 191 195 201 209 214 216 215 212 210 210 212 211 207 214 224 223 213 218 221 219 220 220 216 220 226 227
297 297 305 282 285 63 44 355 26 65 73 73 68 59 55 55 62 75 74 59 21 21 31 26 20 31 42 43 38 29 15 7 360 337 312 302 287 272 250 230 226 219 207 201 198 200 206 212 210 206 206 207 205 195 189 191 189 187 189 193 196 197 200 207 215 220 223 221 217 215 214 215 214 209 211 221 225 214 206 209 209 212 216 216 217 218 216
284 309 332 340 26 75 300 315 62 80 82 77 69 59 54 52 57 69 64 60 52 40 38 36 35 48 56 51 41 30 21 10 357 341 299 282 274 264 262 255 245 233 213 196 184 179 187 198 202 199 196 200 204 204 204 208 204 189 186 195 205 207 209 217 224 228 229 227 222 219 219 219 218 217 216 220 225 222 212 204 204 209 212 211 212 215 217
307 321 342 21 56 195 267 341 44 76 93 89 76 62 47 36 44 60 52 46 49 42 37 39 59 84 73 51 38 30 29 24 2 346 342 345 341 253 227 213 226 236 230 221 209 187 172 175 192 198 197 200 205 207 212 222 227 216 202 204 212 212 213 220 226 229 230 229 225 223 223 221 219 220 220 221 224 226 223 216 211 211 214 215 217 221 226
284 316 344 72 154 237 312 4 13 30 86 98 80 57 34 19 25 45 48 43 37 31 27 22 36 97 83 51 37 31 31 33 26 13 9 14 23 16 217 170 142 121 280 255 237 209 178 165 178 193 201 206 208 209 213 218 224 222 214 212 216 216 216 221 225 227 229 229 227 225 224 223 222 223 223 222 223 226 227 228 228 224 222 224 227 230 234
255 2 20 69 146 353 5 356 323 340 23 90 106 79 27 9 11 18 38 49 33 23 18 10 7 54 75 48 32 29 35 41 48 51 46 45 49 48 61 95 96 78 57 26 242 208 188 171 160 171 196 208 210 212 216 218 217 216 214 212 216 218 218 219 221 225 227 228 228 227 225 225 227 227 225 225 226 226 228 230 234 234 232 232 234 237 237
79 110 99 73 74 30 333 295 300 346 12 64 114 107 35 354 4 16 28 42 37 27 15 9 12 35 64 52 24 26 40 53 57 60 61 64 69 72 79 88 88 87 81 78 121 159 161 143 129 132 194 218 218 216 220 222 219 217 217 216 217 220 220 218 220 224 226 227 228 227 226 229 231 229 226 227 228 228 229 232 235 237 236 234 235 237 238
350 2 131 85 90 193 267 297 330 355 359 6 83 95 39 332 354 22 31 29 31 31 21 18 27 44 59 57 26 34 54 67 66 63 61 59 63 70 78 88 89 89 89 90 111 128 123 114 114 117 116 150 199 206 213 223 225 226 224 217 216 219 219 219 222 224 223 222 224 225 225 228 230 227 225 226 227 228 231 232 233 236 236 235 235 236 237
3 37 67 69 89 122 302 322 346 348 340 338 6 83 43 329 349 24 39 32 24 27 35 33 35 54 73 69 65 70 77 78 76 75 70 66 69 70 70 73 75 79 87 93 101 103 99 101 110 112 99 81 96 145 184 208 217 225 227 212 215 217 213 212 214 213 211 211 215 220 224 227 230 228 225 224 224 225 227 226 228 231 234 234 234 233 232
36 68 80 93 97 21 328 346 1 349 325 346 50 113 223 335 4 28 39 38 25 25 42 50 51 76 93 101 108 105 97 88 85 83 82 83 84 78 73 74 75 74 72 76 90 93 82 67 64 78 128 129 102 104 124 149 158 191 246 235 182 155 189 206 210 208 208 209 212 217 223 227 229 227 225 225 224 220 219 219 223 227 230 232 233 231 230
29 82 97 120 101 4 337 4 22 14 358 136 79 138 168 27 32 39 41 40 31 25 39 60 82 94 92 95 107 110 111 113 104 94 96 99 95 90 91 96 96 91 83 80 89 98 92 56 38 38 174 170 150 134 115 105 106 104 134 181 139 135 163 195 207 209 212 214 216 220 222 225 228 226 224 227 226 220 218 219 222 226 228 229 231 232 232
21 87 72 107 141 8 9 29 31 22 38 123 99 99 85 49 37 41 46 45 35 30 43 63 88 102 89 79 100 116 121 123 123 117 114 109 102 104 111 114 114 110 102 95 94 101 115 119 92 78 97 121 133 134 118 102 99 103 115 124 133 144 147 151 165 189 206 213 213 213 215 220 224 221 217 216 217 217 218 218 220 223 224 223 226 229 233
39 90 67 178 191 67 63 78 80 52 62 79 85 87 81 63 44 38 47 50 38 37 59 70 73 90 92 84 106 129 130 126 130 134 128 114 103 108 118 124 127 125 117 109 105 106 114 115 104 94 93 98 100 98 95 93 94 93 95 108 125 133 133 134 137 146 161 176 185 193 200 204 201 194 190 193 195 197 201 205 211 215 216 214 214 217 219
68 99 138 173 145 104 91 93 95 86 77 77 84 85 76 68 58 43 46 52 39 38 65 79 68 76 90 92 106 132 138 134 133 136 136 127 114 110 116 121 124 123 118 114 114 116 116 113 108 100 94 95 94 89 87 89 91 90 89 97 108 108 108 116 122 122 122 127 134 139 136 126 124 133 145 155 161 165 171 179 190 195 196 197 197 200 201
74 64 92 136 123 109 104 101 98 94 88 83 86 85 75 68 61 47 46 51 41 38 55 76 88 94 96 92 102 130 146 147 146 146 148 148 140 126 120 118 113 111 112 113 118 122 120 119 116 106 95 93 93 94 96 97 94 90 86 88 92 91 93 105 115 119 118 119 123 126 124 118 117 122 128 133 137 140 143 149 160 169 171 172 176 180 181
107 55 22 115 111 106 104 102 101 98 94 90 87 85 82 77 67 53 48 51 48 43 43 49 71 104 130 131 132 146 156 160 166 168 168 172 172 170 168 164 145 130 127 124 120 117 118 125 125 118 112 109 107 106 109 109 104 97 86 78 76 82 93 101 107 114 117 119 124 129 128 124 122 123 126 130 131 130 129 130 137 144 147 149 153 159 167
115 148 141 99 96 99 101 101 101 99 98 97 92 88 88 83 75 64 51 48 48 46 40 35 38 71 147 160 162 168 168 168 177 181 181 183 185 190 195 198 197 181 160 142 130 124 126 136 140 139 139 137 133 131 129 125 119 113 105 97 92 94 94 88 85 100 110 115 122 128 130 131 129 128 129 132 134 133 131 129 132 139 143 142 144 153 166
88 133 140 112 96 93 97 101 103 101 104 105 94 87 87 80 74 69 51 42 42 42 40 30 23 48 151 171 180 184 175 170 176 186 190 188 181 176 175 176 183 189 179 158 149 145 145 149 154 158 157 149 144 142 140 138 137 132 120 112 115 119 113 105 113 123 113 103 104 108 120 139 146 142 142 144 145 145 144 139 136 142 150 149 147 155 164
123 122 121 115 108 109 115 117 115 113 114 108 89 80 88 86 75 65 52 42 39 42 44 29 9 21 72 186 194 193 191 187 187 194 200 199 193 184 179 183 195 202 195 178 169 164 160 160 168 174 172 166 165 164 159 154 153 150 141 125 118 124 128 129 138 140 129 114 92 65 62 108 154 155 153 159 164 162 160 161 160 160 170 174 167 169 178
146 137 119 109 113 123 128 128 130 133 125 109 89 84 91 86 75 65 59 50 37 36 40 31 12 20 23 265 197 197 204 204 197 194 201 210 214 208 198 199 207 213 214 207 188 179 175 170 174 181 180 175 174 175 175 172 164 158 156 148 136 135 135 123 115 127 131 121 95 67 50 47 128 158 141 152 171 175 174 173 172 168 168 168 166 175 197
130 138 139 128 122 124 128 132 137 141 135 121 106 90 76 66 70 76 75 66 42 32 37 37 22 2 356 358 182 188 197 203 198 195 200 210 220 222 218 217 218 218 213 206 195 190 191 190 190 192 192 187 183 182 181 179 171 166 165 161 152 146 141 124 109 117 128 111 82 72 58 43 67 178 152 135 163 177 181 179 176 175 176 173 171 176 189
142 143 143 136 130 133 139 142 140 131 122 123 116 90 56 38 59 85 80 66 46 36 37 31 8 349 350 1 37 167 187 201 202 202 208 207 211 224 231 229 227 224 217 213 211 205 201 200 203 205 202 197 195 191 188 187 183 178 177 172 161 153 150 144 136 132 131 115 82 68 60 57 76 113 108 89 91 140 187 194 198 202 204 205 205 204 206
143 143 143 139 139 145 152 154 148 134 128 129 123 106 88 61 51 72 75 56 56 61 50 33 11 2 3 356 346 181 200 217 212 208 215 210 202 216 230 233 234 236 234 228 222 212 202 195 195 199 199 195 191 189 191 198 200 192 187 182 173 166 166 167 165 161 154 141 117 93 77 70 74 83 84 81 70 60 70 111 148 241 241 245 249 248 249
143 145 149 150 149 150 154 151 144 144 150 143 128 117 114 94 76 95 89 63 58 67 51 40 37 31 20 6 348 218 224 237 228 215 219 221 216 218 228 237 241 240 233 224 216 210 206 200 188 181 182 178 176 182 190 199 202 197 192 189 185 182 184 189 191 191 189 188 180 157 143 144 143 123 105 96 74 52 48 58 58 50 28 346 333 305 278
148 154 162 168 161 155 153 150 148 154 164 154 136 130 124 100 88 96 94 70 59 54 44 38 37 39 38 19 350 332 304 269 246 229 224 228 231 232 234 239 242 237 228 223 219 215 220 230 231 227 221 202 181 179 188 197 204 206 204 200 196 193 192 197 203 207 206 204 203 194 181 177 171 155 141 131 104 59 33 31 43 45 33 10 5 359 346
149 153 152 152 152 151 151 154 154 153 153 149 141 139 137 105 86 79 75 70 59 45 40 37 25 21 36 30 8 354 343 302 259 239 231 231 235 240 242 242 241 236 231 229 229 231 240 252 258 260 263 262 252 228 208 206 210 213 214 214 214 214 210 206 210 215 213 208 206 204 199 195 190 178 169 167 160 134 83 316 287 3 20 15 13 16 26
155 154 147 143 147 150 153 159 158 154 157 162 152 138 134 136 109 63 45 55 46 24 25 28 14 0 1 12 15 7 347 320 276 250 247 246 244 244 244 242 237 234 233 236 241 246 251 254 255 256 259 262 260 253 239 228 219 215 214 216 223 233 233 226 221 221 222 222 224 226 223 216 211 208 206 197 181 160 125 12 285 294 18 38 55 24 32
157 156 155 155 159 164 168 171 169 167 171 170 156 151 148 132 106 52 12 6 360 353 354 3 360 347 330 330 344 354 346 329 304 281 273 267 259 252 250 248 244 241 241 242 245 249 252 250 248 248 248 249 250 250 246 238 230 225 221 218 221 230 233 231 230 230 228 227 229 232 233 228 224 225 224 211 190 175 165 124 62 227 238 190 173 35 39
158 159 160 160 165 178 184 179 175 181 196 191 174 172 173 153 30 318 296 302 318 322 327 340 342 325 308 311 322 339 343 324 307 299 290 278 269 262 258 256 254 252 249 243 240 245 251 250 249 248 245 243 242 243 243 240 234 231 229 225 224 226 227 229 231 230 229 229 225 219 216 211 206 210 213 205 190 180 178 176 197 237 245 246 187 161 125
164 166 171 172 179 195 200 190 186 201 213 206 192 181 160 333 301 283 278 290 301 309 323 330 322 308 306 313 317 320 322 318 313 310 302 290 284 282 276 266 259 257 253 242 235 243 253 256 256 255 250 246 241 237 236 235 234 234 234 231 227 224 223 226 229 228 229 231 225 215 215 217 211 208 209 202 189 176 172 176 213 239 237 238 243 228 209
176 179 187 188 190 201 202 187 185 206 219 208 208 221 238 243 225 216 259 317 321 325 325 319 311 308 314 321 323 322 323 324 324 321 314 304 297 294 289 278 266 261 254 240 234 241 250 256 261 261 256 248 241 234 231 230 232 234 235 231 228 227 225 226 227 227 228 229 226 224 228 221 206 204 209 203 191 185 178 173 193 230 227 230 245 257 269
186 187 189 181 183 203 206 186 177 194 207 205 222 248 250 236 232 245 278 299 310 315 311 302 300 307 312 315 318 321 321 314 310 314 319 317 309 302 295 281 265 255 247 239 238 244 249 252 256 259 259 252 240 231 228 230 232 234 233 227 227 230 232 231 230 227 227 229 230 225 214 192 186 201 214 208 202 202 196 183 174 210 223 224 245 273 288
189 188 184 173 168 180 187 180 174 181 196 219 259 308 326 314 303 303 305 303 304 305 301 297 300 304 306 305 305 306 308 307 305 305 308 312 310 306 300 290 274 256 244 241 243 248 249 247 246 248 255 259 249 237 233 232 231 231 226 220 220 227 233 239 239 230 223 222 220 210 197 190 200 215 214 206 205 208 203 196 191 190 217 230 253 281 296
188 187 186 188 188 180 174 179 189 210 239 256 271 289 305 311 315 316 309 301 298 299 301 301 300 299 299 300 299 297 299 304 307 307 305 309 313 309 303 297 288 269 253 249 250 251 249 245 239 240 250 260 259 247 235 228 226 225 218 214 217 225 234 241 239 222 212 208 202 194 193 204 217 217 213 215 217 209 199 198 199 193 195 242 244 244 168
183 178 176 184 194 199 195 196 210 220 235 253 270 293 311 307 290 287 291 293 296 301 302 302 303 305 307 308 308 306 305 307 309 305 298 299 308 313 310 304 296 280 268 265 264 262 258 251 240 236 242 251 253 247 236 231 232 231 225 219 218 219 225 239 233 207 197 193 189 190 200 216 220 210 207 214 214 198 187 195 198 192 192 200 180 156 145
177 178 175 173 175 176 173 172 182 191 200 222 241 247 262 267 266 275 287 295 301 306 305 301 301 303 306 309 310 308 306 309 315 312 302 294 296 302 304 301 294 286 283 280 272 264 265 262 249 239 240 243 243 241 242 243 241 237 233 228 219 213 220 232 208 179 180 183 189 200 209 212 209 205 206 207 200 188 183 186 184 183 194 206 196 185 195
178 183 184 186 191 192 188 192 204 217 230 238 234 237 260 275 275 278 284 288 290 295 297 299 299 299 299 302 302 297 292 291 299 304 302 296 292 292 294 295 293 290 289 287 279 270 269 270 261 248 240 237 236 238 243 248 243 233 233 233 218 208 209 205 175 172 182 193 201 207 211 213 216 216 211 199 190 188 189 184 172 170 181 200 206 206 206
181 182 181 186 199 199 195 195 200 212 228 232 232 242 268 279 283 290 294 292 292 293 294 298 301 301 298 297 297 296 292 289 287 289 288 287 289 293 292 288 288 291 293 290 285 278 270 266 264 257 245 236 234 236 242 246 242 233 233 227 206 193 191 188 185 189 197 202 203 205 209 214 216 212 195 176 176 186 196 196 187 181 184 193 200 203 203
180 187 195 193 179 174 177 180 177 189 221 236 246 262 271 268 274 285 289 289 294 298 299 300 303 302 299 297 296 296 294 291 289 288 286 282 285 295 297 290 284 286 290 287 281 275 269 265 264 261 252 242 236 236 240 243 240 233 228 216 198 187 183 186 193 195 192 195 205 212 210 207 208 204 194 187 190 197 205 205 198 195 197 199 201 206 211
189 199 206 202 184 176 183 179 164 181 220 240 247 258 265 266 268 275 283 289 296 300 300 300 300 298 297 298 298 299 300 302 302 299 294 283 272 272 282 292 292 287 285 284 280 276 274 269 263 258 253 246 239 237 237 237 232 226 217 205 198 195 190 191 198 199 193 194 204 206 200 201 211 208 194 188 190 197 203 195 188 191 196 202 206 211 217
188 186 186 179 168 170 180 173 169 201 235 244 246 254 263 267 267 269 276 286 292 291 289 289 290 289 292 296 299 300 300 300 299 296 293 289 278 265 264 282 298 298 294 292 288 282 276 269 263 259 257 247 239 235 232 226 220 219 213 203 201 201 197 196 202 204 199 198 198 192 187 194 206 205 193 183 181 185 184 179 181 192 203 210 215 221 228
179 172 169 163 156 163 176 188 213 232 243 255 265 267 265 266 269 271 274 281 287 289 289 292 295 297 298 300 301 300 298 295 294 292 290 289 289 285 279 278 284 293 301 305 299 288 281 275 267 261 256 248 239 233 227 219 214 215 213 203 196 192 192 197 203 205 201 198 195 190 189 194 200 201 199 193 186 186 187 186 189 200 206 208 212 224 235
182 183 180 163 158 172 192 209 219 225 246 273 285 286 278 268 268 274 281 287 291 295 300 305 309 311 309 305 303 303 303 300 297 294 288 283 284 290 294 292 288 287 291 296 297 293 291 291 284 266 251 243 237 232 224 217 214 215 214 203 189 183 188 198 202 202 199 194 188 186 190 192 191 193 197 196 193 195 199 199 199 205 210 213 219 228 237
194 228 202 179 171 177 197 217 226 237 264 280 282 281 278 273 272 283 297 305 305 308 316 322 321 317 311 307 305 307 308 305 300 296 292 286 282 284 290 296 294 288 285 286 287 284 283 286 290 283 264 246 235 228 222 218 216 215 210 199 188 187 195 200 198 192 188 186 185 185 186 185 183 184 187 189 190 194 199 201 204 210 214 211 203 195 194
187 198 181 172 175 187 201 216 231 242 262 276 272 265 269 279 290 309 323 323 318 318 322 322 316 309 304 301 300 301 304 306 305 303 303 300 293 283 275 274 277 281 284 285 282 277 272 267 267 272 268 252 237 227 222 219 217 212 202 192 190 194 198 196 191 185 183 184 186 186 184 185 189 192 193 194 198 201 201 203 207 207 200 183 169 172 190
192 186 161 143 155 186 200 219 248 251 254 260 261 261 275 296 316 327 322 312 311 321 327 323 316 315 318 319 314 306 302 304 307 307 306 303 297 290 284 278 275 276 280 284 287 288 286 279 271 264 260 253 243 232 225 222 220 213 202 195 194 197 198 195 190 186 184 184 185 184 183 184 190 195 198 205 213 213 209 206 201 193 183 173 170 180 191
219 220 205 194 200 208 210 221 233 237 243 251 254 260 283 307 322 321 304 299 311 329 339 340 336 336 340 339 327 312 302 299 302 304 304 301 296 291 287 284 280 276 275 278 284 286 284 281 279 269 254 245 239 231 226 223 219 212 205 200 197 199 202 202 200 197 193 191 190 190 187 184 186 189 187 186 192 195 193 188 183 181 181 181 179 178 179
196 194 187 188 203 226 237 231 226 229 238 237 223 219 270 294 314 308 293 299 317 337 352 1 358 348 339 333 326 316 304 293 287 289 295 299 300 297 290 282 279 278 275 277 282 285 279 273 271 266 256 245 232 223 222 222 218 208 201 197 196 198 198 196 195 196 195 192 190 190 184 177 179 187 188 176 170 170 167 164 170 183 193 200 206 211 210
156 167 166 173 204 246 266 254 226 234 242 224 187 203 249 267 291 293 287 298 319 337 351 2 359 344 334 333 334 328 318 306 294 287 288 293 301 304 299 290 283 279 275 274 279 283 279 269 260 253 246 238 224 215 215 218 214 203 193 189 192 196 194 189 189 193 193 188 187 189 185 176 175 183 186 183 181 183 183 184 189 199 205 209 217 224 227